<?xml version='1.0' encoding='UTF-8'?>
<gpx xmlns="http://www.topografix.com/GPX/1/1" creator="www.balnam.be" version="1.1" xmlns:xsi="http://www.w3.org/2001/XMLSchema-instance" xsi:schemaLocation="http://www.topografix.com/GPX/1/1 http://www.topografix.com/GPX/1/1/gpx.xsd">
<trk>
<name>hbthl1</name>
<cmt>v</cmt>
<desc>Hollain Chemin n°1 </desc>
<link href="https://chemins.be/hollain/chemin/1"/><trkseg>
<trkpt lat="50.540504" lon="3.413100"><time>2026-05-02T17:09:20Z</time></trkpt>
<trkpt lat="50.547802" lon="3.410834"><time>2026-05-02T17:19:20Z</time></trkpt>
</trkseg>
</trk>
<trk>
<name>hbthl12</name>
<cmt>r</cmt>
<desc>Hollain Chemin n°12 </desc>
<link href="https://chemins.be/hollain/chemin/12"/><trkseg>
<trkpt lat="50.537720" lon="3.417691"><time>2026-05-02T17:09:20Z</time></trkpt>
<trkpt lat="50.537862" lon="3.419365"><time>2026-05-02T17:19:20Z</time></trkpt>
<trkpt lat="50.538195" lon="3.421030"><time>2026-05-02T17:29:20Z</time></trkpt>
<trkpt lat="50.538217" lon="3.423485"><time>2026-05-02T17:39:20Z</time></trkpt>
<trkpt lat="50.537802" lon="3.425107"><time>2026-05-02T17:49:20Z</time></trkpt>
<trkpt lat="50.537682" lon="3.426334"><time>2026-05-02T17:59:20Z</time></trkpt>
</trkseg>
</trk>
<trk>
<name>hbthl14</name>
<cmt>r</cmt>
<desc>Hollain Chemin n°14 Rue Rivière</desc>
<link href="https://chemins.be/hollain/chemin/14"/><trkseg>
<trkpt lat="50.536323" lon="3.426253"><time>2026-05-02T17:09:20Z</time></trkpt>
<trkpt lat="50.536165" lon="3.428142"><time>2026-05-02T17:19:20Z</time></trkpt>
<trkpt lat="50.536209" lon="3.428365"><time>2026-05-02T17:29:20Z</time></trkpt>
<trkpt lat="50.536067" lon="3.428811"><time>2026-05-02T17:39:20Z</time></trkpt>
</trkseg></trk>
<trk>
<name>hbthl14</name>
<cmt>q</cmt>
<desc>Hollain Chemin n°14 Rue Rivière</desc>
<link href="https://chemins.be/hollain/chemin/14"/><trkseg>
<trkpt lat="50.536067" lon="3.428811"><time>2026-05-02T17:39:20Z</time></trkpt>
<trkpt lat="50.535922" lon="3.429785"><time>2026-05-02T17:49:20Z</time></trkpt>
</trkseg>
</trk>
<trk>
<name>hbthl15</name>
<cmt>v</cmt>
<desc>Hollain Chemin n°15 </desc>
<link href="https://chemins.be/hollain/chemin/15"/><trkseg>
<trkpt lat="50.536896" lon="3.428704"><time>2026-05-02T17:09:20Z</time></trkpt>
<trkpt lat="50.536683" lon="3.429214"><time>2026-05-02T17:19:20Z</time></trkpt>
</trkseg>
</trk>
<trk>
<name>hbthl17</name>
<cmt>v</cmt>
<desc>Hollain Chemin n°17 </desc>
<link href="https://chemins.be/hollain/chemin/17"/><trkseg>
<trkpt lat="50.539824" lon="3.428538"><time>2026-05-02T17:09:20Z</time></trkpt>
<trkpt lat="50.539505" lon="3.429203"><time>2026-05-02T17:19:20Z</time></trkpt>
</trkseg>
</trk>
<trk>
<name>hbthl18</name>
<cmt>r</cmt>
<desc>Hollain Chemin n°18 Rue des Flamands</desc>
<link href="https://chemins.be/hollain/chemin/18"/><trkseg>
<trkpt lat="50.541081" lon="3.426396"><time>2026-05-02T17:09:20Z</time></trkpt>
<trkpt lat="50.541080" lon="3.425733"><time>2026-05-02T17:19:20Z</time></trkpt>
<trkpt lat="50.541034" lon="3.425167"><time>2026-05-02T17:29:20Z</time></trkpt>
</trkseg></trk>
<trk>
<name>hbthl18</name>
<cmt>v</cmt>
<desc>Hollain Chemin n°18 Rue des Flamands</desc>
<link href="https://chemins.be/hollain/chemin/18"/><trkseg>
<trkpt lat="50.541034" lon="3.425167"><time>2026-05-02T17:29:20Z</time></trkpt>
<trkpt lat="50.541041" lon="3.424462"><time>2026-05-02T17:39:20Z</time></trkpt>
</trkseg></trk>
<trk>
<name>hbthl18</name>
<cmt>d</cmt>
<desc>Hollain Chemin n°18 Rue des Flamands</desc>
<link href="https://chemins.be/hollain/chemin/18"/><trkseg>
<trkpt lat="50.541041" lon="3.424462"><time>2026-05-02T17:39:20Z</time></trkpt>
<trkpt lat="50.541041" lon="3.423794"><time>2026-05-02T17:49:20Z</time></trkpt>
</trkseg></trk>
<trk>
<name>hbthl18</name>
<cmt>q</cmt>
<desc>Hollain Chemin n°18 Rue des Flamands</desc>
<link href="https://chemins.be/hollain/chemin/18"/><trkseg>
<trkpt lat="50.541041" lon="3.423794"><time>2026-05-02T17:49:20Z</time></trkpt>
<trkpt lat="50.541295" lon="3.422382"><time>2026-05-02T17:59:20Z</time></trkpt>
</trkseg>
</trk>
<trk>
<name>hbthl19</name>
<cmt>v</cmt>
<desc>Hollain Chemin n°19 </desc>
<link href="https://chemins.be/hollain/chemin/19"/><trkseg>
<trkpt lat="50.535489" lon="3.428652"><time>2026-05-02T17:09:20Z</time></trkpt>
<trkpt lat="50.534938" lon="3.428677"><time>2026-05-02T17:19:20Z</time></trkpt>
<trkpt lat="50.533924" lon="3.428274"><time>2026-05-02T17:29:20Z</time></trkpt>
<trkpt lat="50.531959" lon="3.427132"><time>2026-05-02T17:39:20Z</time></trkpt>
<trkpt lat="50.530868" lon="3.427562"><time>2026-05-02T17:49:20Z</time></trkpt>
<trkpt lat="50.529291" lon="3.426806"><time>2026-05-02T17:59:20Z</time></trkpt>
<trkpt lat="50.527436" lon="3.425236"><time>2026-05-02T18:09:20Z</time></trkpt>
<trkpt lat="50.527256" lon="3.424798"><time>2026-05-02T18:19:20Z</time></trkpt>
<trkpt lat="50.527496" lon="3.423562"><time>2026-05-02T18:29:20Z</time></trkpt>
</trkseg>
</trk>
<trk>
<name>hbthl2</name>
<cmt>v</cmt>
<desc>Hollain Chemin n°2 </desc>
<link href="https://chemins.be/hollain/chemin/2"/><trkseg>
<trkpt lat="50.526318" lon="3.413268"><time>2026-05-02T17:09:20Z</time></trkpt>
<trkpt lat="50.526056" lon="3.416152"><time>2026-05-02T17:19:20Z</time></trkpt>
<trkpt lat="50.526001" lon="3.417070"><time>2026-05-02T17:29:20Z</time></trkpt>
<trkpt lat="50.526143" lon="3.417705"><time>2026-05-02T17:39:20Z</time></trkpt>
<trkpt lat="50.526760" lon="3.419636"><time>2026-05-02T17:49:20Z</time></trkpt>
<trkpt lat="50.527640" lon="3.420338"><time>2026-05-02T17:59:20Z</time></trkpt>
<trkpt lat="50.527921" lon="3.420668"><time>2026-05-02T18:09:20Z</time></trkpt>
<trkpt lat="50.528374" lon="3.420956"><time>2026-05-02T18:19:20Z</time></trkpt>
<trkpt lat="50.528521" lon="3.421325"><time>2026-05-02T18:29:20Z</time></trkpt>
<trkpt lat="50.529986" lon="3.422215"><time>2026-05-02T18:39:20Z</time></trkpt>
<trkpt lat="50.531361" lon="3.424069"><time>2026-05-02T18:49:20Z</time></trkpt>
<trkpt lat="50.531754" lon="3.425683"><time>2026-05-02T18:59:20Z</time></trkpt>
</trkseg>
</trk>
<trk>
<name>hbthl20</name>
<cmt>v</cmt>
<desc>Hollain Chemin n°20 </desc>
<link href="https://chemins.be/hollain/chemin/20"/><trkseg>
<trkpt lat="50.524888" lon="3.409980"><time>2026-05-02T17:09:20Z</time></trkpt>
<trkpt lat="50.522313" lon="3.407371"><time>2026-05-02T17:19:20Z</time></trkpt>
<trkpt lat="50.520841" lon="3.406772"><time>2026-05-02T17:29:20Z</time></trkpt>
</trkseg>
</trk>
<trk>
<name>hbthl23</name>
<cmt>v</cmt>
<desc>Hollain Chemin n°23 </desc>
<link href="https://chemins.be/hollain/chemin/23"/><trkseg>
<trkpt lat="50.545210" lon="3.417224"><time>2026-05-02T17:09:20Z</time></trkpt>
<trkpt lat="50.545346" lon="3.418151"><time>2026-05-02T17:19:20Z</time></trkpt>
<trkpt lat="50.545635" lon="3.421216"><time>2026-05-02T17:29:20Z</time></trkpt>
<trkpt lat="50.545553" lon="3.422185"><time>2026-05-02T17:39:20Z</time></trkpt>
<trkpt lat="50.544684" lon="3.424028"><time>2026-05-02T17:49:20Z</time></trkpt>
<trkpt lat="50.544171" lon="3.424712"><time>2026-05-02T17:59:20Z</time></trkpt>
<trkpt lat="50.544044" lon="3.425124"><time>2026-05-02T18:09:20Z</time></trkpt>
<trkpt lat="50.543904" lon="3.425075"><time>2026-05-02T18:19:20Z</time></trkpt>
<trkpt lat="50.543823" lon="3.425394"><time>2026-05-02T18:29:20Z</time></trkpt>
<trkpt lat="50.543698" lon="3.425680"><time>2026-05-02T18:39:20Z</time></trkpt>
</trkseg>
</trk>
<trk>
<name>hbthl24</name>
<cmt>d</cmt>
<desc>Hollain Chemin n°24 </desc>
<link href="https://chemins.be/hollain/chemin/24"/><trkseg>
<trkpt lat="50.556004" lon="3.416607"><time>2026-05-02T17:09:20Z</time></trkpt>
<trkpt lat="50.556431" lon="3.418717"><time>2026-05-02T17:19:20Z</time></trkpt>
</trkseg></trk>
<trk>
<name>hbthl24</name>
<cmt>r</cmt>
<desc>Hollain Chemin n°24 </desc>
<link href="https://chemins.be/hollain/chemin/24"/><trkseg>
<trkpt lat="50.556431" lon="3.418717"><time>2026-05-02T17:19:20Z</time></trkpt>
<trkpt lat="50.555640" lon="3.419272"><time>2026-05-02T17:29:20Z</time></trkpt>
</trkseg></trk>
<trk>
<name>hbthl24</name>
<cmt>v</cmt>
<desc>Hollain Chemin n°24 </desc>
<link href="https://chemins.be/hollain/chemin/24"/><trkseg>
<trkpt lat="50.555640" lon="3.419272"><time>2026-05-02T17:29:20Z</time></trkpt>
<trkpt lat="50.554587" lon="3.420011"><time>2026-05-02T17:39:20Z</time></trkpt>
<trkpt lat="50.553609" lon="3.420297"><time>2026-05-02T17:49:20Z</time></trkpt>
<trkpt lat="50.552928" lon="3.420791"><time>2026-05-02T17:59:20Z</time></trkpt>
</trkseg>
</trk>
<trk>
<name>hbthl27</name>
<cmt>v</cmt>
<desc>Hollain Chemin n°27 Rue des Flamands / Rue Saint Antoine</desc>
<link href="https://chemins.be/hollain/chemin/27"/><trkseg>
<trkpt lat="50.541005" lon="3.425126"><time>2026-05-02T17:09:20Z</time></trkpt>
<trkpt lat="50.540694" lon="3.425098"><time>2026-05-02T17:19:20Z</time></trkpt>
<trkpt lat="50.540602" lon="3.425268"><time>2026-05-02T17:29:20Z</time></trkpt>
<trkpt lat="50.540409" lon="3.425438"><time>2026-05-02T17:39:20Z</time></trkpt>
</trkseg></trk>
<trk>
<name>hbthl27</name>
<cmt>r</cmt>
<desc>Hollain Chemin n°27 Rue des Flamands / Rue Saint Antoine</desc>
<link href="https://chemins.be/hollain/chemin/27"/><trkseg>
<trkpt lat="50.540409" lon="3.425438"><time>2026-05-02T17:39:20Z</time></trkpt>
<trkpt lat="50.539302" lon="3.425129"><time>2026-05-02T17:49:20Z</time></trkpt>
<trkpt lat="50.539217" lon="3.425039"><time>2026-05-02T17:59:20Z</time></trkpt>
</trkseg>
</trk>
<trk>
<name>hbthl28</name>
<cmt>v</cmt>
<desc>Hollain Chemin n°28 </desc>
<link href="https://chemins.be/hollain/chemin/28"/><trkseg>
<trkpt lat="50.537122" lon="3.414102"><time>2026-05-02T17:09:20Z</time></trkpt>
<trkpt lat="50.535079" lon="3.414967"><time>2026-05-02T17:19:20Z</time></trkpt>
<trkpt lat="50.533063" lon="3.415424"><time>2026-05-02T17:29:20Z</time></trkpt>
<trkpt lat="50.532812" lon="3.415733"><time>2026-05-02T17:39:20Z</time></trkpt>
</trkseg>
</trk>
<trk>
<name>hbthl29</name>
<cmt>q</cmt>
<desc>Hollain Sentier n°29 </desc>
<link href="https://chemins.be/hollain/sentier/29"/><trkseg>
<trkpt lat="50.561472" lon="3.414006"><time>2026-05-02T17:09:20Z</time></trkpt>
<trkpt lat="50.561414" lon="3.413056"><time>2026-05-02T17:19:20Z</time></trkpt>
<trkpt lat="50.560803" lon="3.411589"><time>2026-05-02T17:29:20Z</time></trkpt>
<trkpt lat="50.561392" lon="3.410859"><time>2026-05-02T17:39:20Z</time></trkpt>
<trkpt lat="50.563676" lon="3.409580"><time>2026-05-02T17:49:20Z</time></trkpt>
</trkseg>
</trk>
<trk>
<name>hbthl3</name>
<cmt>v</cmt>
<desc>Hollain Chemin n°3 </desc>
<link href="https://chemins.be/hollain/chemin/3"/><trkseg>
<trkpt lat="50.526029" lon="3.413508"><time>2026-05-02T17:09:20Z</time></trkpt>
<trkpt lat="50.523977" lon="3.415954"><time>2026-05-02T17:19:20Z</time></trkpt>
<trkpt lat="50.522416" lon="3.416898"><time>2026-05-02T17:29:20Z</time></trkpt>
<trkpt lat="50.521330" lon="3.418950"><time>2026-05-02T17:39:20Z</time></trkpt>
<trkpt lat="50.521047" lon="3.419310"><time>2026-05-02T17:49:20Z</time></trkpt>
</trkseg>
</trk>
<trk>
<name>hbthl30</name>
<cmt>q</cmt>
<desc>Hollain Sentier n°30 </desc>
<link href="https://chemins.be/hollain/sentier/30"/><trkseg>
<trkpt lat="50.553652" lon="3.420280"><time>2026-05-02T17:09:20Z</time></trkpt>
<trkpt lat="50.552921" lon="3.417070"><time>2026-05-02T17:19:20Z</time></trkpt>
<trkpt lat="50.552698" lon="3.416212"><time>2026-05-02T17:29:20Z</time></trkpt>
<trkpt lat="50.552480" lon="3.414486"><time>2026-05-02T17:39:20Z</time></trkpt>
<trkpt lat="50.552938" lon="3.413233"><time>2026-05-02T17:49:20Z</time></trkpt>
<trkpt lat="50.552780" lon="3.411268"><time>2026-05-02T17:59:20Z</time></trkpt>
<trkpt lat="50.552965" lon="3.410744"><time>2026-05-02T18:09:20Z</time></trkpt>
<trkpt lat="50.552861" lon="3.409208"><time>2026-05-02T18:19:20Z</time></trkpt>
</trkseg>
</trk>
<trk>
<name>hbthl31</name>
<cmt>v</cmt>
<desc>Hollain Sentier n°31 </desc>
<link href="https://chemins.be/hollain/sentier/31"/><trkseg>
<trkpt lat="50.552929" lon="3.420724"><time>2026-05-02T17:09:20Z</time></trkpt>
<trkpt lat="50.552449" lon="3.418969"><time>2026-05-02T17:19:20Z</time></trkpt>
<trkpt lat="50.551634" lon="3.415596"><time>2026-05-02T17:29:20Z</time></trkpt>
<trkpt lat="50.550786" lon="3.416171"><time>2026-05-02T17:39:20Z</time></trkpt>
<trkpt lat="50.549471" lon="3.415778"><time>2026-05-02T17:49:20Z</time></trkpt>
</trkseg>
</trk>
<trk>
<name>hbthl33</name>
<cmt>d</cmt>
<desc>Hollain Sentier n°33 </desc>
<link href="https://chemins.be/hollain/sentier/33"/><trkseg>
<trkpt lat="50.547501" lon="3.415737"><time>2026-05-02T17:09:20Z</time></trkpt>
<trkpt lat="50.547010" lon="3.415004"><time>2026-05-02T17:19:20Z</time></trkpt>
<trkpt lat="50.546031" lon="3.414257"><time>2026-05-02T17:29:20Z</time></trkpt>
<trkpt lat="50.545500" lon="3.414141"><time>2026-05-02T17:39:20Z</time></trkpt>
<trkpt lat="50.543593" lon="3.412137"><time>2026-05-02T17:49:20Z</time></trkpt>
</trkseg>
</trk>
<trk>
<name>hbthl34</name>
<cmt>v</cmt>
<desc>Hollain Sentier n°34 </desc>
<link href="https://chemins.be/hollain/sentier/34"/><trkseg>
<trkpt lat="50.541576" lon="3.416686"><time>2026-05-02T17:09:20Z</time></trkpt>
<trkpt lat="50.542429" lon="3.416348"><time>2026-05-02T17:19:20Z</time></trkpt>
<trkpt lat="50.542871" lon="3.416134"><time>2026-05-02T17:29:20Z</time></trkpt>
</trkseg></trk>
<trk>
<name>hbthl34</name>
<cmt>d</cmt>
<desc>Hollain Sentier n°34 </desc>
<link href="https://chemins.be/hollain/sentier/34"/><trkseg>
<trkpt lat="50.542871" lon="3.416134"><time>2026-05-02T17:29:20Z</time></trkpt>
<trkpt lat="50.543815" lon="3.415284"><time>2026-05-02T17:39:20Z</time></trkpt>
<trkpt lat="50.544417" lon="3.414844"><time>2026-05-02T17:49:20Z</time></trkpt>
<trkpt lat="50.544764" lon="3.414774"><time>2026-05-02T17:59:20Z</time></trkpt>
<trkpt lat="50.545679" lon="3.415010"><time>2026-05-02T18:09:20Z</time></trkpt>
</trkseg>
</trk>
<trk>
<name>hbthl35</name>
<cmt>v</cmt>
<desc>Hollain Sentier n°35 Sentier des Ecoles</desc>
<link href="https://chemins.be/hollain/sentier/35"/><trkseg>
<trkpt lat="50.541042" lon="3.425303"><time>2026-05-02T17:09:20Z</time></trkpt>
<trkpt lat="50.541475" lon="3.425286"><time>2026-05-02T17:19:20Z</time></trkpt>
<trkpt lat="50.541544" lon="3.425616"><time>2026-05-02T17:29:20Z</time></trkpt>
</trkseg></trk>
<trk>
<name>hbthl35</name>
<cmt>r</cmt>
<desc>Hollain Sentier n°35 Sentier des Ecoles</desc>
<link href="https://chemins.be/hollain/sentier/35"/><trkseg>
<trkpt lat="50.541544" lon="3.425616"><time>2026-05-02T17:29:20Z</time></trkpt>
<trkpt lat="50.542501" lon="3.425702"><time>2026-05-02T17:39:20Z</time></trkpt>
</trkseg></trk>
<trk>
<name>hbthl35</name>
<cmt>v</cmt>
<desc>Hollain Sentier n°35 Sentier des Ecoles</desc>
<link href="https://chemins.be/hollain/sentier/35"/><trkseg>
<trkpt lat="50.542501" lon="3.425702"><time>2026-05-02T17:39:20Z</time></trkpt>
<trkpt lat="50.543359" lon="3.425497"><time>2026-05-02T17:49:20Z</time></trkpt>
<trkpt lat="50.543818" lon="3.425398"><time>2026-05-02T17:59:20Z</time></trkpt>
</trkseg></trk>
<trk>
<name>hbthl35</name>
<cmt>q</cmt>
<desc>Hollain Sentier n°35 Sentier des Ecoles</desc>
<link href="https://chemins.be/hollain/sentier/35"/><trkseg>
<trkpt lat="50.543818" lon="3.425398"><time>2026-05-02T17:59:20Z</time></trkpt>
<trkpt lat="50.545029" lon="3.425171"><time>2026-05-02T18:09:20Z</time></trkpt>
</trkseg></trk>
<trk>
<name>hbthl35</name>
<cmt>d</cmt>
<desc>Hollain Sentier n°35 Sentier des Ecoles</desc>
<link href="https://chemins.be/hollain/sentier/35"/><trkseg>
<trkpt lat="50.545029" lon="3.425171"><time>2026-05-02T18:09:20Z</time></trkpt>
<trkpt lat="50.545804" lon="3.425026"><time>2026-05-02T18:19:20Z</time></trkpt>
<trkpt lat="50.546181" lon="3.424348"><time>2026-05-02T18:29:20Z</time></trkpt>
<trkpt lat="50.547922" lon="3.423103"><time>2026-05-02T18:39:20Z</time></trkpt>
<trkpt lat="50.552687" lon="3.419696"><time>2026-05-02T18:49:20Z</time></trkpt>
</trkseg>
</trk>
<trk>
<name>hbthl36</name>
<cmt>q</cmt>
<desc>Hollain Sentier n°36 </desc>
<link href="https://chemins.be/hollain/sentier/36"/><trkseg>
<trkpt lat="50.546015" lon="3.427718"><time>2026-05-02T17:09:20Z</time></trkpt>
<trkpt lat="50.546015" lon="3.427325"><time>2026-05-02T17:19:20Z</time></trkpt>
<trkpt lat="50.544361" lon="3.425322"><time>2026-05-02T17:29:20Z</time></trkpt>
</trkseg>
</trk>
<trk>
<name>hbthl37</name>
<cmt>v</cmt>
<desc>Hollain Sentier n°37 Rue du Marais</desc>
<link href="https://chemins.be/hollain/sentier/37"/><trkseg>
<trkpt lat="50.538282" lon="3.428683"><time>2026-05-02T17:09:20Z</time></trkpt>
<trkpt lat="50.539502" lon="3.429207"><time>2026-05-02T17:19:20Z</time></trkpt>
<trkpt lat="50.540175" lon="3.429387"><time>2026-05-02T17:29:20Z</time></trkpt>
<trkpt lat="50.540562" lon="3.429764"><time>2026-05-02T17:39:20Z</time></trkpt>
</trkseg></trk>
<trk>
<name>hbthl37</name>
<cmt>q</cmt>
<desc>Hollain Sentier n°37 Rue du Marais</desc>
<link href="https://chemins.be/hollain/sentier/37"/><trkseg>
<trkpt lat="50.540562" lon="3.429764"><time>2026-05-02T17:39:20Z</time></trkpt>
<trkpt lat="50.540626" lon="3.429684"><time>2026-05-02T17:49:20Z</time></trkpt>
<trkpt lat="50.541148" lon="3.429024"><time>2026-05-02T17:59:20Z</time></trkpt>
<trkpt lat="50.541996" lon="3.428801"><time>2026-05-02T18:09:20Z</time></trkpt>
<trkpt lat="50.542422" lon="3.428749"><time>2026-05-02T18:19:20Z</time></trkpt>
<trkpt lat="50.542417" lon="3.428812"><time>2026-05-02T18:29:20Z</time></trkpt>
<trkpt lat="50.542582" lon="3.428903"><time>2026-05-02T18:39:20Z</time></trkpt>
<trkpt lat="50.542569" lon="3.429439"><time>2026-05-02T18:49:20Z</time></trkpt>
<trkpt lat="50.542778" lon="3.429404"><time>2026-05-02T18:59:20Z</time></trkpt>
<trkpt lat="50.542834" lon="3.429902"><time>2026-05-02T19:09:20Z</time></trkpt>
</trkseg></trk>
<trk>
<name>hbthl37</name>
<cmt>r</cmt>
<desc>Hollain Sentier n°37 Rue du Marais</desc>
<link href="https://chemins.be/hollain/sentier/37"/><trkseg>
<trkpt lat="50.542834" lon="3.429902"><time>2026-05-02T19:09:20Z</time></trkpt>
<trkpt lat="50.543230" lon="3.429861"><time>2026-05-02T19:19:20Z</time></trkpt>
</trkseg></trk>
<trk>
<name>hbthl37</name>
<cmt>q</cmt>
<desc>Hollain Sentier n°37 Rue du Marais</desc>
<link href="https://chemins.be/hollain/sentier/37"/><trkseg>
<trkpt lat="50.543230" lon="3.429861"><time>2026-05-02T19:19:20Z</time></trkpt>
<trkpt lat="50.543860" lon="3.430434"><time>2026-05-02T19:29:20Z</time></trkpt>
<trkpt lat="50.544843" lon="3.430214"><time>2026-05-02T19:39:20Z</time></trkpt>
<trkpt lat="50.544923" lon="3.430017"><time>2026-05-02T19:49:20Z</time></trkpt>
<trkpt lat="50.545066" lon="3.430169"><time>2026-05-02T19:59:20Z</time></trkpt>
<trkpt lat="50.545815" lon="3.430007"><time>2026-05-02T20:09:20Z</time></trkpt>
<trkpt lat="50.545920" lon="3.429907"><time>2026-05-02T20:19:20Z</time></trkpt>
<trkpt lat="50.546747" lon="3.429807"><time>2026-05-02T20:29:20Z</time></trkpt>
<trkpt lat="50.547020" lon="3.429850"><time>2026-05-02T20:39:20Z</time></trkpt>
<trkpt lat="50.547797" lon="3.429771"><time>2026-05-02T20:49:20Z</time></trkpt>
</trkseg>
</trk>
<trk>
<name>hbthl39</name>
<cmt>q</cmt>
<desc>Hollain Sentier n°39 </desc>
<link href="https://chemins.be/hollain/sentier/39"/><trkseg>
<trkpt lat="50.542168" lon="3.422248"><time>2026-05-02T17:09:20Z</time></trkpt>
<trkpt lat="50.542075" lon="3.423243"><time>2026-05-02T17:19:20Z</time></trkpt>
<trkpt lat="50.542065" lon="3.425651"><time>2026-05-02T17:29:20Z</time></trkpt>
</trkseg>
</trk>
<trk>
<name>hbthl4</name>
<cmt>v</cmt>
<desc>Hollain Chemin n°4 </desc>
<link href="https://chemins.be/hollain/chemin/4"/><trkseg>
<trkpt lat="50.538597" lon="3.417838"><time>2026-05-02T17:09:20Z</time></trkpt>
<trkpt lat="50.537891" lon="3.415164"><time>2026-05-02T17:19:20Z</time></trkpt>
<trkpt lat="50.537670" lon="3.413964"><time>2026-05-02T17:29:20Z</time></trkpt>
</trkseg>
</trk>
<trk>
<name>hbthl40</name>
<cmt>q</cmt>
<desc>Hollain Sentier n°40 </desc>
<link href="https://chemins.be/hollain/sentier/40"/><trkseg>
<trkpt lat="50.544996" lon="3.430273"><time>2026-05-02T17:09:20Z</time></trkpt>
<trkpt lat="50.544972" lon="3.428526"><time>2026-05-02T17:19:20Z</time></trkpt>
<trkpt lat="50.544901" lon="3.428539"><time>2026-05-02T17:29:20Z</time></trkpt>
<trkpt lat="50.544898" lon="3.427578"><time>2026-05-02T17:39:20Z</time></trkpt>
</trkseg>
</trk>
<trk>
<name>hbthl41</name>
<cmt>q</cmt>
<desc>Hollain Sentier n°41 </desc>
<link href="https://chemins.be/hollain/sentier/41"/><trkseg>
<trkpt lat="50.542611" lon="3.428870"><time>2026-05-02T17:09:20Z</time></trkpt>
<trkpt lat="50.542970" lon="3.428727"><time>2026-05-02T17:19:20Z</time></trkpt>
<trkpt lat="50.544143" lon="3.428469"><time>2026-05-02T17:29:20Z</time></trkpt>
<trkpt lat="50.544897" lon="3.428527"><time>2026-05-02T17:39:20Z</time></trkpt>
</trkseg>
</trk>
<trk>
<name>hbthl42</name>
<cmt>q</cmt>
<desc>Hollain Sentier n°42 </desc>
<link href="https://chemins.be/hollain/sentier/42"/><trkseg>
<trkpt lat="50.542007" lon="3.426724"><time>2026-05-02T17:09:20Z</time></trkpt>
<trkpt lat="50.541980" lon="3.428762"><time>2026-05-02T17:19:20Z</time></trkpt>
</trkseg>
</trk>
<trk>
<name>hbthl43</name>
<cmt>v</cmt>
<desc>Hollain Sentier n°43 </desc>
<link href="https://chemins.be/hollain/sentier/43"/><trkseg>
<trkpt lat="50.539288" lon="3.425069"><time>2026-05-02T17:09:20Z</time></trkpt>
<trkpt lat="50.537840" lon="3.424949"><time>2026-05-02T17:19:20Z</time></trkpt>
<trkpt lat="50.534607" lon="3.424374"><time>2026-05-02T17:29:20Z</time></trkpt>
<trkpt lat="50.534599" lon="3.424150"><time>2026-05-02T17:39:20Z</time></trkpt>
<trkpt lat="50.534136" lon="3.424635"><time>2026-05-02T17:49:20Z</time></trkpt>
</trkseg>
</trk>
<trk>
<name>hbthl44</name>
<cmt>q</cmt>
<desc>Hollain Sentier n°44 </desc>
<link href="https://chemins.be/hollain/sentier/44"/><trkseg>
<trkpt lat="50.537866" lon="3.419445"><time>2026-05-02T17:09:20Z</time></trkpt>
<trkpt lat="50.536592" lon="3.417441"><time>2026-05-02T17:19:20Z</time></trkpt>
<trkpt lat="50.536074" lon="3.417385"><time>2026-05-02T17:29:20Z</time></trkpt>
<trkpt lat="50.535064" lon="3.414913"><time>2026-05-02T17:39:20Z</time></trkpt>
<trkpt lat="50.533179" lon="3.411757"><time>2026-05-02T17:49:20Z</time></trkpt>
</trkseg>
</trk>
<trk>
<name>hbthl45</name>
<cmt>q</cmt>
<desc>Hollain Sentier n°45 </desc>
<link href="https://chemins.be/hollain/sentier/45"/><trkseg>
<trkpt lat="50.537682" lon="3.417653"><time>2026-05-02T17:09:20Z</time></trkpt>
<trkpt lat="50.536989" lon="3.414181"><time>2026-05-02T17:19:20Z</time></trkpt>
</trkseg>
</trk>
<trk>
<name>hbthl46</name>
<cmt>v</cmt>
<desc>Hollain Sentier n°46 </desc>
<link href="https://chemins.be/hollain/sentier/46"/><trkseg>
<trkpt lat="50.539045" lon="3.420883"><time>2026-05-02T17:09:20Z</time></trkpt>
<trkpt lat="50.539345" lon="3.420776"><time>2026-05-02T17:19:20Z</time></trkpt>
<trkpt lat="50.539817" lon="3.420746"><time>2026-05-02T17:29:20Z</time></trkpt>
<trkpt lat="50.539986" lon="3.420535"><time>2026-05-02T17:39:20Z</time></trkpt>
<trkpt lat="50.540203" lon="3.419906"><time>2026-05-02T17:49:20Z</time></trkpt>
<trkpt lat="50.540230" lon="3.419624"><time>2026-05-02T17:59:20Z</time></trkpt>
</trkseg>
</trk>
<trk>
<name>hbthl47</name>
<cmt>v</cmt>
<desc>Hollain Sentier n°47 </desc>
<link href="https://chemins.be/hollain/sentier/47"/><trkseg>
<trkpt lat="50.540210" lon="3.419527"><time>2026-05-02T17:09:20Z</time></trkpt>
<trkpt lat="50.540420" lon="3.420153"><time>2026-05-02T17:19:20Z</time></trkpt>
<trkpt lat="50.540589" lon="3.420763"><time>2026-05-02T17:29:20Z</time></trkpt>
<trkpt lat="50.540537" lon="3.421398"><time>2026-05-02T17:39:20Z</time></trkpt>
<trkpt lat="50.540720" lon="3.422063"><time>2026-05-02T17:49:20Z</time></trkpt>
<trkpt lat="50.540723" lon="3.422295"><time>2026-05-02T17:59:20Z</time></trkpt>
</trkseg></trk>
<trk>
<name>hbthl47</name>
<cmt>q</cmt>
<desc>Hollain Sentier n°47 </desc>
<link href="https://chemins.be/hollain/sentier/47"/><trkseg>
<trkpt lat="50.540723" lon="3.422295"><time>2026-05-02T17:59:20Z</time></trkpt>
<trkpt lat="50.540832" lon="3.423720"><time>2026-05-02T18:09:20Z</time></trkpt>
<trkpt lat="50.540969" lon="3.424460"><time>2026-05-02T18:19:20Z</time></trkpt>
<trkpt lat="50.540713" lon="3.424668"><time>2026-05-02T18:29:20Z</time></trkpt>
<trkpt lat="50.540736" lon="3.425106"><time>2026-05-02T18:39:20Z</time></trkpt>
</trkseg>
</trk>
<trk>
<name>hbthl48</name>
<cmt>v</cmt>
<desc>Hollain Sentier n°48 Voie de l'Avoué ou "de la planche au beure"</desc>
<link href="https://chemins.be/hollain/sentier/48"/><trkseg>
<trkpt lat="50.535038" lon="3.426043"><time>2026-05-02T17:09:20Z</time></trkpt>
<trkpt lat="50.534773" lon="3.428588"><time>2026-05-02T17:19:20Z</time></trkpt>
</trkseg>
</trk>
<trk>
<name>hbthl49</name>
<cmt>v</cmt>
<desc>Hollain Sentier n°49 </desc>
<link href="https://chemins.be/hollain/sentier/49"/><trkseg>
<trkpt lat="50.535036" lon="3.428648"><time>2026-05-02T17:09:20Z</time></trkpt>
<trkpt lat="50.535213" lon="3.429592"><time>2026-05-02T17:19:20Z</time></trkpt>
</trkseg></trk>
<trk>
<name>hbthl49</name>
<cmt>s</cmt>
<desc>Hollain Sentier n°49 </desc>
<link href="https://chemins.be/hollain/sentier/49"/><trkseg>
<trkpt lat="50.535213" lon="3.429592"><time>2026-05-02T17:19:20Z</time></trkpt>
<trkpt lat="50.535349" lon="3.430219"><time>2026-05-02T17:29:20Z</time></trkpt>
</trkseg>
</trk>
<trk>
<name>hbthl50</name>
<cmt>d</cmt>
<desc>Hollain Sentier n°50 </desc>
<link href="https://chemins.be/hollain/sentier/50"/><trkseg>
<trkpt lat="50.521090" lon="3.419207"><time>2026-05-02T17:09:20Z</time></trkpt>
<trkpt lat="50.521156" lon="3.417250"><time>2026-05-02T17:19:20Z</time></trkpt>
<trkpt lat="50.521085" lon="3.414627"><time>2026-05-02T17:29:20Z</time></trkpt>
<trkpt lat="50.520977" lon="3.413427"><time>2026-05-02T17:39:20Z</time></trkpt>
<trkpt lat="50.520648" lon="3.410789"><time>2026-05-02T17:49:20Z</time></trkpt>
</trkseg></trk>
<trk>
<name>hbthl50</name>
<cmt>v</cmt>
<desc>Hollain Sentier n°50 </desc>
<link href="https://chemins.be/hollain/sentier/50"/><trkseg>
<trkpt lat="50.520648" lon="3.410789"><time>2026-05-02T17:49:20Z</time></trkpt>
<trkpt lat="50.520943" lon="3.406839"><time>2026-05-02T17:59:20Z</time></trkpt>
</trkseg>
</trk>
<trk>
<name>hbthl51</name>
<cmt>v</cmt>
<desc>Hollain Sentier n°51 </desc>
<link href="https://chemins.be/hollain/sentier/51"/><trkseg>
<trkpt lat="50.548310" lon="3.410590"><time>2026-05-02T17:09:20Z</time></trkpt>
<trkpt lat="50.548190" lon="3.411774"><time>2026-05-02T17:19:20Z</time></trkpt>
<trkpt lat="50.549416" lon="3.415761"><time>2026-05-02T17:29:20Z</time></trkpt>
<trkpt lat="50.547529" lon="3.415589"><time>2026-05-02T17:39:20Z</time></trkpt>
<trkpt lat="50.546787" lon="3.415967"><time>2026-05-02T17:49:20Z</time></trkpt>
<trkpt lat="50.546526" lon="3.417289"><time>2026-05-02T17:59:20Z</time></trkpt>
<trkpt lat="50.545358" lon="3.418130"><time>2026-05-02T18:09:20Z</time></trkpt>
</trkseg>
</trk>
<trk>
<name>hbthl52</name>
<cmt>v</cmt>
<desc>Hollain Sentier n°52 </desc>
<link href="https://chemins.be/hollain/sentier/52"/><trkseg>
<trkpt lat="50.542375" lon="3.424029"><time>2026-05-02T17:09:20Z</time></trkpt>
<trkpt lat="50.542888" lon="3.424187"><time>2026-05-02T17:19:20Z</time></trkpt>
<trkpt lat="50.543987" lon="3.424788"><time>2026-05-02T17:29:20Z</time></trkpt>
<trkpt lat="50.544159" lon="3.424720"><time>2026-05-02T17:39:20Z</time></trkpt>
</trkseg>
</trk>
<trk>
<name>hbthl7</name>
<cmt>q</cmt>
<desc>Hollain Chemin n°7 </desc>
<link href="https://chemins.be/hollain/chemin/7"/><trkseg>
<trkpt lat="50.529564" lon="3.432489"><time>2026-05-02T17:09:20Z</time></trkpt>
<trkpt lat="50.530327" lon="3.432373"><time>2026-05-02T17:19:20Z</time></trkpt>
<trkpt lat="50.531078" lon="3.431252"><time>2026-05-02T17:29:20Z</time></trkpt>
<trkpt lat="50.531917" lon="3.430856"><time>2026-05-02T17:39:20Z</time></trkpt>
<trkpt lat="50.534154" lon="3.431200"><time>2026-05-02T17:49:20Z</time></trkpt>
<trkpt lat="50.535593" lon="3.430693"><time>2026-05-02T17:59:20Z</time></trkpt>
</trkseg></trk>
<trk>
<name>hbthl7</name>
<cmt>s</cmt>
<desc>Hollain Chemin n°7 </desc>
<link href="https://chemins.be/hollain/chemin/7"/><trkseg>
<trkpt lat="50.535593" lon="3.430693"><time>2026-05-02T17:59:20Z</time></trkpt>
<trkpt lat="50.536543" lon="3.430359"><time>2026-05-02T18:09:20Z</time></trkpt>
<trkpt lat="50.536716" lon="3.429622"><time>2026-05-02T18:19:20Z</time></trkpt>
</trkseg>
</trk>
<trk>
<name>hbthl8</name>
<cmt>v</cmt>
<desc>Hollain Chemin n°8 </desc>
<link href="https://chemins.be/hollain/chemin/8"/><trkseg>
<trkpt lat="50.540606" lon="3.436857"><time>2026-05-02T17:09:20Z</time></trkpt>
<trkpt lat="50.540093" lon="3.434883"><time>2026-05-02T17:19:20Z</time></trkpt>
<trkpt lat="50.540165" lon="3.434331"><time>2026-05-02T17:29:20Z</time></trkpt>
</trkseg></trk>
<trk>
<name>hbthl8</name>
<cmt>s</cmt>
<desc>Hollain Chemin n°8 </desc>
<link href="https://chemins.be/hollain/chemin/8"/><trkseg>
<trkpt lat="50.540165" lon="3.434331"><time>2026-05-02T17:29:20Z</time></trkpt>
<trkpt lat="50.540269" lon="3.434155"><time>2026-05-02T17:39:20Z</time></trkpt>
<trkpt lat="50.540633" lon="3.433261"><time>2026-05-02T17:49:20Z</time></trkpt>
</trkseg></trk>
<trk>
<name>hbthl8</name>
<cmt>q</cmt>
<desc>Hollain Chemin n°8 </desc>
<link href="https://chemins.be/hollain/chemin/8"/><trkseg>
<trkpt lat="50.540633" lon="3.433261"><time>2026-05-02T17:49:20Z</time></trkpt>
<trkpt lat="50.540950" lon="3.432016"><time>2026-05-02T17:59:20Z</time></trkpt>
<trkpt lat="50.540742" lon="3.430875"><time>2026-05-02T18:09:20Z</time></trkpt>
<trkpt lat="50.539722" lon="3.430051"><time>2026-05-02T18:19:20Z</time></trkpt>
<trkpt lat="50.538048" lon="3.429364"><time>2026-05-02T18:29:20Z</time></trkpt>
<trkpt lat="50.536918" lon="3.429700"><time>2026-05-02T18:39:20Z</time></trkpt>
<trkpt lat="50.536718" lon="3.429584"><time>2026-05-02T18:49:20Z</time></trkpt>
</trkseg>
</trk>
<trk>
<name>hbthl9</name>
<cmt>v</cmt>
<desc>Hollain Chemin n°9 </desc>
<link href="https://chemins.be/hollain/chemin/9"/><trkseg>
<trkpt lat="50.537726" lon="3.417683"><time>2026-05-02T17:09:20Z</time></trkpt>
<trkpt lat="50.536640" lon="3.417434"><time>2026-05-02T17:19:20Z</time></trkpt>
<trkpt lat="50.536057" lon="3.417425"><time>2026-05-02T17:29:20Z</time></trkpt>
<trkpt lat="50.534169" lon="3.417004"><time>2026-05-02T17:39:20Z</time></trkpt>
<trkpt lat="50.532783" lon="3.415794"><time>2026-05-02T17:49:20Z</time></trkpt>
<trkpt lat="50.528818" lon="3.416780"><time>2026-05-02T17:59:20Z</time></trkpt>
<trkpt lat="50.526171" lon="3.417611"><time>2026-05-02T18:09:20Z</time></trkpt>
<trkpt lat="50.522451" lon="3.418944"><time>2026-05-02T18:19:20Z</time></trkpt>
</trkseg></trk>
<trk>
<name>hbthl9</name>
<cmt>b</cmt>
<desc>Hollain Chemin n°9 </desc>
<link href="https://chemins.be/hollain/chemin/9"/><trkseg>
<trkpt lat="50.522451" lon="3.418944"><time>2026-05-02T18:19:20Z</time></trkpt>
<trkpt lat="50.521598" lon="3.419198"><time>2026-05-02T18:29:20Z</time></trkpt>
<trkpt lat="50.521232" lon="3.419121"><time>2026-05-02T18:39:20Z</time></trkpt>
</trkseg>
</trk>
<trk>
<name>hbthli1</name>
<cmt>v</cmt>
<desc>Hollain Chemin n°i1 </desc>
<link href="https://chemins.be/hollain/chemin/i1"/><trkseg>
<trkpt lat="50.539502" lon="3.429214"><time>2026-05-02T17:09:20Z</time></trkpt>
<trkpt lat="50.538984" lon="3.430757"><time>2026-05-02T17:19:20Z</time></trkpt>
<trkpt lat="50.538707" lon="3.431763"><time>2026-05-02T17:29:20Z</time></trkpt>
</trkseg>
</trk>
<trk>
<name>hbthli2</name>
<cmt>v</cmt>
<desc>Hollain Chemin n°i2 Rue du Marais</desc>
<link href="https://chemins.be/hollain/chemin/i2"/><trkseg>
<trkpt lat="50.541001" lon="3.428106"><time>2026-05-02T17:09:20Z</time></trkpt>
<trkpt lat="50.540663" lon="3.428865"><time>2026-05-02T17:19:20Z</time></trkpt>
<trkpt lat="50.540625" lon="3.429681"><time>2026-05-02T17:29:20Z</time></trkpt>
</trkseg>
</trk>
<trk>
<name>hbthli3</name>
<cmt>v</cmt>
<desc>Hollain Chemin n°i3 </desc>
<link href="https://chemins.be/hollain/chemin/i3"/><trkseg>
<trkpt lat="50.522460" lon="3.419650"><time>2026-05-02T17:09:20Z</time></trkpt>
<trkpt lat="50.522448" lon="3.418940"><time>2026-05-02T17:19:20Z</time></trkpt>
</trkseg>
</trk>
<trk>
<name>hbthli4</name>
<cmt>v</cmt>
<desc>Hollain Chemin n°i4 </desc>
<link href="https://chemins.be/hollain/chemin/i4"/><trkseg>
<trkpt lat="50.528468" lon="3.421164"><time>2026-05-02T17:09:20Z</time></trkpt>
<trkpt lat="50.527922" lon="3.420975"><time>2026-05-02T17:19:20Z</time></trkpt>
<trkpt lat="50.525281" lon="3.420443"><time>2026-05-02T17:29:20Z</time></trkpt>
<trkpt lat="50.525216" lon="3.420271"><time>2026-05-02T17:39:20Z</time></trkpt>
</trkseg>
</trk>
<trk>
<name>hbthli5</name>
<cmt>v</cmt>
<desc>Hollain Chemin n°i5 </desc>
<link href="https://chemins.be/hollain/chemin/i5"/><trkseg>
<trkpt lat="50.536687" lon="3.429224"><time>2026-05-02T17:09:20Z</time></trkpt>
<trkpt lat="50.535965" lon="3.429880"><time>2026-05-02T17:19:20Z</time></trkpt>
</trkseg>
</trk>
<trk>
<name>hbthli6</name>
<cmt>d</cmt>
<desc>Hollain Chemin n°i6 </desc>
<link href="https://chemins.be/hollain/chemin/i6"/><trkseg>
<trkpt lat="50.544156" lon="3.424646"><time>2026-05-02T17:09:20Z</time></trkpt>
<trkpt lat="50.545029" lon="3.425061"><time>2026-05-02T17:19:20Z</time></trkpt>
</trkseg>
</trk>
<trk>
<name>hbthlL88</name>
<cmt>v</cmt>
<desc>Hollain Chemin n°L88 </desc>
<link href="https://chemins.be/hollain/chemin/L88"/><trkseg>
<trkpt lat="50.520963" lon="3.419340"><time>2026-05-02T17:09:20Z</time></trkpt>
<trkpt lat="50.522431" lon="3.419661"><time>2026-05-02T17:19:20Z</time></trkpt>
<trkpt lat="50.528359" lon="3.420956"><time>2026-05-02T17:29:20Z</time></trkpt>
<trkpt lat="50.532749" lon="3.421915"><time>2026-05-02T17:39:20Z</time></trkpt>
<trkpt lat="50.538237" lon="3.423135"><time>2026-05-02T17:49:20Z</time></trkpt>
<trkpt lat="50.539683" lon="3.423457"><time>2026-05-02T17:59:20Z</time></trkpt>
<trkpt lat="50.540932" lon="3.423735"><time>2026-05-02T18:09:20Z</time></trkpt>
<trkpt lat="50.542335" lon="3.424306"><time>2026-05-02T18:19:20Z</time></trkpt>
<trkpt lat="50.544045" lon="3.425102"><time>2026-05-02T18:29:20Z</time></trkpt>
<trkpt lat="50.546695" lon="3.426470"><time>2026-05-02T18:39:20Z</time></trkpt>
<trkpt lat="50.547282" lon="3.427011"><time>2026-05-02T18:49:20Z</time></trkpt>
<trkpt lat="50.547753" lon="3.427724"><time>2026-05-02T18:59:20Z</time></trkpt>
</trkseg>
</trk>
<trk>
<name>hbthlp1</name>
<cmt>q</cmt>
<desc>Hollain Chemin particulier n°p1 </desc>
<link href="https://chemins.be/hollain/chemin/p1"/><trkseg>
<trkpt lat="50.542790" lon="3.426917"><time>2026-05-02T17:09:20Z</time></trkpt>
<trkpt lat="50.542405" lon="3.428728"><time>2026-05-02T17:19:20Z</time></trkpt>
</trkseg>
</trk>
</gpx>